User: anonymous   Login
Location: Dover
(39.1580°N, 75.5250°W)
Time: 18:05:35
(UTC-05:00)
Language:

Cosmos 1437 Rocket - Orbit

View from above orbital plane
View from above orbital plane
View from above satellite
View from above satellite

Ground track
Ground track

The orbit data is extracted from the following two-line orbital elements,

1 13771U 83003B   15061.17920797  .00003838  00000-0  24752-3 0  9993
2 13771 081.1518 248.2269 0028148 260.8270 098.9769 15.07755322747403
Epoch (UTC): 02 March 2015 04:18:03
Eccentricity: 0.0028148
inclination: 81.1518°
perigee height: 523 km
apogee height: 562 km
right ascension of ascending node: 248.2269°
argument of perigee: 260.8270°
revolutions per day: 15.07755322
mean anomaly at epoch: 98.9769°
orbit number at epoch: 74740

The dashed part of the orbit path shows where the satellite is in the earth's shadow,  

DLR